User: anonymous   Login
Location: Chacón
(10.5789°N, 66.9317°W)
Time: 20:21:49
(UTC+00:00)
Language:

Sakura Rocket - Orbit

View from above orbital plane
View from above orbital plane
View from above satellite
View from above satellite

Ground track
Ground track

The orbit data is extracted from the following two-line orbital elements,

1 10517U 77118B   24197.55129725  .00004885  00000-0  90046-3 0  9994
2 10517  28.6597  29.9869 0828197 156.5575 207.5069 13.44060835256337
Epoch (UTC): 15 July 2024 13:13:52
Eccentricity: 0.0828197
inclination: 28.6597°
perigee height: 475 km
apogee height: 1713 km
right ascension of ascending node: 29.9869°
argument of perigee: 156.5575°
revolutions per day: 13.44060835
mean anomaly at epoch: 207.5069°
orbit number at epoch: 25633

The dashed part of the orbit path shows where the satellite is in the earth's shadow,  

DLR